Weather History for Eufaula, AL

Change the Weather History Date:

Sunday, October 28, 2012

  Actual Average (KLSF) Record (KLSF)
Temperature  
Mean Temperature 54 °F -  
Max Temperature 59 °F 74 °F 86 °F (1996)
Min Temperature 48 °F 47 °F 26 °F (2001)
Degree Days  
Heating Degree Days 12    
Growing Degree Days 4 (Base 50)    
Moisture  
Dew Point 45 °F    
Average Humidity 70    
Maximum Humidity 80    
Minimum Humidity 57    
Precipitation  
Precipitation 0.00 in - - ()
Sea Level Pressure  
Sea Level Pressure 29.85 in    
Wind  
Wind Speed 6 mph (NW)    
Max Wind Speed 9 mph    
Max Gust Speed 20 mph    
Visibility 10 miles    
Events      
Averages and records for this station are not official NWS values.
T = Trace of Precipitation, MM = Missing Value Source: NWS Daily Summary

Daily Weather History Graph

Daily Weather History Graph

Search for Another Location

Airport:

Trip Planner

Search our weather history database for the weather conditions in past years. The results will help you decide how hot, cold, wet, or windy it might be!

Date:

Astronomy

Oct. 28, 2012 Rise Set
Actual Time 6:54 AM CDT 5:53 PM CDT
Civil Twilight 6:29 AM CDT 6:18 PM CDT
Nautical Twilight 6:00 AM CDT 6:47 PM CDT
Astronomical Twilight 5:31 AM CDT 7:16 PM CDT
Moon 5:10 PM CDT (10/28) 5:48 AM CDT (10/28)
Length of Visible Light 11h 49m
Length of Day
10h 59m
Waxing Gibbous, 99% of the Moon is Illuminated
Oct 28
Waxing Gibbous
Oct 29
Full
Nov 6
Last Quarter
Nov 13
New
Nov 20
First Quarter

Hourly Weather History & Observations

Time (CDT) Temp. Dew Point Humidity Pressure Visibility Wind Dir Wind Speed Gust Speed Precip Events Conditions
12:58 AM 55.9 °F 48.0 °F 75% 29.83 in 10.0 mi Variable 4.6 mph - N/A   Overcast
1:58 AM 55.0 °F 48.0 °F 77% 29.82 in 10.0 mi NW 5.8 mph - N/A   Overcast
2:58 AM 54.0 °F 46.9 °F 77% 29.81 in 10.0 mi NW 8.1 mph - N/A   Overcast
3:16 AM 53.6 °F 46.4 °F 77% 29.81 in 10.0 mi WNW 5.8 mph - N/A   Overcast
3:58 AM 53.1 °F 46.9 °F 80% 29.81 in 10.0 mi NW 6.9 mph - N/A   Overcast
4:58 AM 53.1 °F 46.0 °F 77% 29.81 in 10.0 mi NW 8.1 mph 18.4 mph N/A   Overcast
5:58 AM 53.1 °F 46.0 °F 77% 29.82 in 10.0 mi WNW 6.9 mph - N/A   Overcast
6:58 AM 53.1 °F 46.0 °F 77% 29.84 in 10.0 mi NW 6.9 mph - N/A   Overcast
7:40 AM 53.6 °F 46.4 °F 77% 29.85 in 10.0 mi Variable 4.6 mph - N/A   Overcast
7:58 AM 53.1 °F 46.0 °F 77% 29.86 in 10.0 mi NNW 5.8 mph - N/A   Overcast
8:58 AM 54.0 °F 46.0 °F 75% 29.86 in 10.0 mi NW 5.8 mph - N/A   Overcast
9:58 AM 55.0 °F 46.0 °F 72% 29.86 in 10.0 mi Variable 5.8 mph - N/A   Overcast
10:58 AM 55.0 °F 46.0 °F 72% 29.85 in 10.0 mi NNW 6.9 mph - N/A   Overcast
11:58 AM 57.0 °F 46.0 °F 67% 29.84 in 10.0 mi NNW 8.1 mph 16.1 mph N/A   Overcast
12:58 PM 57.9 °F 46.0 °F 65% 29.83 in 10.0 mi NW 9.2 mph 17.3 mph N/A   Overcast
1:58 PM 57.0 °F 46.0 °F 67% 29.83 in 10.0 mi NW 6.9 mph 19.6 mph N/A   Overcast
2:58 PM 57.9 °F 46.0 °F 65% 29.83 in 10.0 mi Variable 6.9 mph 17.3 mph N/A   Overcast
3:58 PM 59.0 °F 44.1 °F 58% 29.83 in 10.0 mi Variable 4.6 mph 18.4 mph N/A   Overcast
4:58 PM 59.0 °F 44.1 °F 58% 29.83 in 10.0 mi NW 8.1 mph 19.6 mph N/A   Overcast
5:58 PM 57.9 °F 44.1 °F 60% 29.86 in 10.0 mi NNW 5.8 mph - N/A   Overcast
6:58 PM 55.9 °F 41.0 °F 57% 29.88 in 10.0 mi Variable 5.8 mph - N/A   Partly Cloudy
7:58 PM 55.0 °F 39.9 °F 57% 29.90 in 10.0 mi NW 8.1 mph - N/A   Mostly Cloudy
8:58 PM 53.1 °F 39.0 °F 59% 29.91 in 10.0 mi Variable 5.8 mph - N/A   Clear
9:58 PM 50.0 °F 39.0 °F 66% 29.93 in 10.0 mi NW 3.5 mph - N/A   Clear
10:58 PM 48.9 °F 39.0 °F 69% 29.93 in 10.0 mi NW 5.8 mph - N/A   Clear
11:58 PM 48.0 °F 39.0 °F 71% 29.93 in 10.0 mi WNW 6.9 mph - N/A   Clear